默认 日期 大小 文件数 浏览量 最新下载 xml
-705磁力链接相关资源由用户搜索指令自动获取,结果来源于网络,本站不存储任何资料,亦不承担任何责任,请于24小时内删除,搜索到2344个磁力,用时2ms。
    {"Sobrenatural - Temp.7 [HDTV][Cap.705][Español Castellano][www.newpct.com].avi": 456599552}
创建时间: 2018-12-28 07:18:42 大小:435.45 MB 文件数量:1 热度:5 最近下载:2023-04-18 01:50:04
    ... 注.txt": 247, "(SOD)(STAR-705)逢坂はるな ... ン.jpg": 165959, "(SOD)(STAR-705)逢坂はるな ...
创建时间: 2018-12-28 16:59:46 大小:3.6 GB 文件数量:9 热度:124 最近下载:2025-09-05 15:44:04
    {"705.jpg": 314893, "706.jpg": 338079, " ...
创建时间: 2018-12-28 22:35:14 大小:2.47 GB 文件数量:20 热度:9 最近下载:2024-05-04 00:26:01
    {"djinn.nfo": 11855, "file_id.diz": 900, "d-ngse01.zip": 5013171, "d-ngse02.zip": 5013171, "d-ngse03.zip": 5013171, "d-ngse04.zip": 5013171, "d-ngse05.zip": 5013171, "d-ngse06.zip": 1705684}
创建时间: 2018-12-28 23:53:43 大小:25.54 MB 文件数量:8 热度:7 最近下载:2025-01-26 16:51:11
    {"JUC-705.jpg": 167732, "JUC-705.mp4": 1465809510}
创建时间: 2018-12-29 00:49:02 大小:1.37 GB 文件数量:2 热度:23 最近下载:2025-08-04 16:34:05
    ... , "(S級素人)(SAMA-705)S級素人 奇 ... , "(S級素人)(SAMA-705)S級素人 奇 ...
创建时间: 2018-12-29 01:35:31 大小:1.31 GB 文件数量:9 热度:84 最近下载:2025-09-13 19:11:02
    {"thzbt.com.url": 48, "[thz.la]shkd-705.mp4": 3113864224, "75bt.info桃花族.txt": 72, "yeyemo.in色色偶.url": 145, "最新地址获取.url": 48, "TaoHuaZu.me桃花族.url": 144, "桃花族地址发布器.chm": 17100}
创建时间: 2018-12-29 08:16:07 大小:2.9 GB 文件数量:7 热度:42 最近下载:2025-08-31 13:03:03
    ... ": 98869, "死夜悪-SHKD-705 狂い咲きレ ... りお.jpg": 158197, "SHKD-705 狂い咲きレ ...
创建时间: 2018-12-29 18:35:54 大小:1.73 GB 文件数量:9 热度:61 最近下载:2025-09-25 11:03:02
    ... 新].txt": 499, "(MOODYZ)(MIAD-705)タイトスカ ... ト.avi": 1098424424, "(MOODYZ)(MIAD-705)タイトスカ ...
创建时间: 2018-12-29 20:00:12 大小:1.02 GB 文件数量:9 热度:207 最近下载:2025-10-17 00:28:02
    {"The Office - Temp.7 [HDTV][Cap.705][Español Castellano][www.newpct.com].avi": 228326096}
创建时间: 2018-12-29 21:41:50 大小:217.75 MB 文件数量:1 热度:5 最近下载:2023-04-19 10:20:03
    {"Graphics": {"back.jpg": 891951, "front.jpg": 6365719, "labelA.jpg": 1428872, "labelB.jpg": 1436658, "1987 - Dead Can Dance - Within The Realm Of A Dying Sun.txt": 13000}, "A4 Xavier.flac": 132814988, "B2 Cantara.flac": 130792301, "A2 Windfall.flac": ...
创建时间: 2018-12-29 23:16:26 大小:802.4 MB 文件数量:15 热度:5 最近下载:2023-04-19 12:10:01
    {"www.newpct.com.url": 111, "www.newpct1.com.url": 196, "www.DIVXATOPE.com.url": 877522, "Importante leer !!!!!.txt": 299, "PequeNasMentirosas_705_WWW.NEWPCT1.COM.avi": 497310806}
创建时间: 2018-12-30 01:02:55 大小:475.11 MB 文件数量:5 热度:5 最近下载:2023-04-19 14:50:03
    {"259LUXU-705.mp4": 2980986586, "JAV Torrents.url": 130}
创建时间: 2018-12-30 06:29:32 大小:2.78 GB 文件数量:2 热度:19 最近下载:2024-06-21 20:58:03
    ... )ラグジュTV 705.jpg": 43882, "[XAVDZ.COM]259LUXU ... ラグジュTV 705.mp4": 2568418555}
创建时间: 2018-12-30 16:40:17 大小:2.39 GB 文件数量:10 热度:68 最近下载:2025-03-10 03:25:02
    ... 新].txt": 499, "(IDEAPOCKET)(IPZ-705)FIRST IMPRESSION 92 美月 ... ア.jpg": 140336, "(IDEAPOCKET)(IPZ-705)FIRST IMPRESSION 92 美月 ...
创建时间: 2018-12-30 16:42:47 大小:5.79 GB 文件数量:9 热度:173 最近下载:2025-10-04 03:41:03
    ... イト.jpg": 1966849}, "JUFD-705": {"xhd1080.com.url": 118, "www ...
创建时间: 2018-12-30 20:30:48 大小:9.24 GB 文件数量:63 热度:59 最近下载:2025-10-06 18:28:03
    {"Divxatope.url": 114, "Importante Leer !!.txt": 310, "RCompromiso705 [www.newpct.com].avi": 234777308}
创建时间: 2018-12-31 00:56:07 大小:223.9 MB 文件数量:3 热度:5 最近下载:2023-04-20 13:40:04
    {"MDS-705.avi": 1243749348}
创建时间: 2018-12-31 02:35:22 大小:1.16 GB 文件数量:1 热度:93 最近下载:2025-08-04 18:47:08
    {"(hd)shkd-705 Javchan.com-8.mp4": 264563224, "Watch JAV Stream Online - JAVChan.com.url": 109}
创建时间: 2018-12-31 04:09:22 大小:252.31 MB 文件数量:2 热度:24 最近下载:2025-05-05 07:50:01
    {"MXGS-705.jpg": 154387, "MXGS-705.mp4": 3080984449, "bt88.net.ico": 370070, "bt88.net.url": 117}
创建时间: 2018-12-31 19:10:51 大小:2.87 GB 文件数量:4 热度:67 最近下载:2025-08-05 14:26:07